Climatologie pour Saint-Brevin les Pins
Jour • Résumé pour juillet 20, 2017 Système :  Métrique    Anglais   Mixte
« - 1 jour
+ 1 jour »
Jour Semaine Mois Année Personnalisé
  Maximum : Minimum : Moyenne :
Température sous abri : 22.8 °C 15.1 °C 18.2 °C
Point de rosée : 17.3 °C 10.5 °C 13.2 °C
Humidité : 94 % 54 % 74 %
Vitesse du vent : 29.0 km/h 0.0 km/h 10.1 km/h
Rafale : 41.8 km/h - -
Direction :- - WNW
Pression : 1015.8 hPa 1010.4 hPa -
Précipitations : 0.3 mm    
Historical Graphs
 
 
Tableau de données pour juillet 20, 2017
Heure Tempé Pt rosée Pression Vent Vitesse Rafale Humidité Taux pluie (/hr) Soleil
00:00 18.4 °C 17.3 °C 1010.4 hPa West 8.0 km/h 25.7 km/h 93 % 0.0 mm 0 W/m2
00:10 18.4 °C 17.3 °C 1010.4 hPa WNW 12.9 km/h 25.7 km/h 93 % 0.0 mm 0 W/m2
00:15 18.4 °C 17.2 °C 1010.4 hPa West 19.3 km/h 25.7 km/h 93 % 0.0 mm 0 W/m2
00:20 18.4 °C 17.2 °C 1010.4 hPa WSW 4.8 km/h 25.7 km/h 93 % 0.0 mm 0 W/m2
00:25 18.4 °C 17.3 °C 1010.4 hPa NNW 11.3 km/h 30.6 km/h 93 % 0.0 mm 0 W/m2
00:30 18.4 °C 17.2 °C 1010.4 hPa SW 6.4 km/h 30.6 km/h 93 % 0.0 mm 0 W/m2
00:35 18.3 °C 17.0 °C 1010.4 hPa WNW 9.7 km/h 22.5 km/h 92 % 0.0 mm 0 W/m2
00:40 18.3 °C 17.0 °C 1010.4 hPa West 14.5 km/h 25.7 km/h 92 % 0.0 mm 0 W/m2
00:45 18.1 °C 16.8 °C 1010.7 hPa West 16.1 km/h 30.6 km/h 92 % 0.0 mm 0 W/m2
00:50 18.1 °C 16.8 °C 1010.7 hPa WSW 11.3 km/h 30.6 km/h 92 % 0.0 mm 0 W/m2
00:55 18.1 °C 16.6 °C 1010.7 hPa WNW 8.0 km/h 30.6 km/h 91 % 0.0 mm 0 W/m2
01:00 18.1 °C 16.6 °C 1010.7 hPa WSW 24.1 km/h 41.8 km/h 91 % 0.0 mm 0 W/m2
01:05 18.1 °C 16.6 °C 1010.7 hPa West 25.7 km/h 41.8 km/h 91 % 0.0 mm 0 W/m2
01:10 18.0 °C 16.5 °C 1010.7 hPa WNW 14.5 km/h 30.6 km/h 91 % 0.0 mm 0 W/m2
01:15 17.9 °C 16.6 °C 1010.7 hPa WSW 6.4 km/h 29.0 km/h 92 % 0.0 mm 0 W/m2
01:20 17.9 °C 16.6 °C 1010.7 hPa West 6.4 km/h 25.7 km/h 92 % 0.0 mm 0 W/m2
01:30 18.0 °C 16.7 °C 1010.7 hPa WNW 8.0 km/h 33.8 km/h 92 % 0.0 mm 0 W/m2
01:35 17.9 °C 16.6 °C 1011.1 hPa WSW 17.7 km/h 33.8 km/h 92 % 0.0 mm 0 W/m2
01:40 17.8 °C 16.5 °C 1011.1 hPa WSW 29.0 km/h 29.0 km/h 92 % 0.0 mm 0 W/m2
01:45 17.9 °C 16.6 °C 1011.1 hPa WNW 19.3 km/h 29.0 km/h 92 % 0.0 mm 0 W/m2
01:50 17.8 °C 16.5 °C 1011.1 hPa West 12.9 km/h 29.0 km/h 92 % 0.0 mm 0 W/m2
01:55 17.7 °C 16.5 °C 1011.1 hPa NW 8.0 km/h 29.0 km/h 93 % 0.0 mm 0 W/m2
02:00 17.6 °C 16.4 °C 1011.1 hPa WSW 14.5 km/h 33.8 km/h 93 % 0.0 mm 0 W/m2
02:05 17.6 °C 16.4 °C 1011.4 hPa WSW 24.1 km/h 33.8 km/h 93 % 0.0 mm 0 W/m2
02:10 17.4 °C 16.1 °C 1011.4 hPa West 14.5 km/h 37.0 km/h 92 % 0.0 mm 0 W/m2
02:15 17.6 °C 16.2 °C 1011.4 hPa WNW 11.3 km/h 37.0 km/h 92 % 0.0 mm 0 W/m2
02:20 17.7 °C 16.4 °C 1011.4 hPa WNW 20.9 km/h 29.0 km/h 92 % 0.0 mm 0 W/m2
02:25 17.6 °C 16.2 °C 1011.4 hPa WNW 9.7 km/h 29.0 km/h 92 % 0.0 mm 0 W/m2
02:30 17.6 °C 16.2 °C 1011.4 hPa West 16.1 km/h 27.4 km/h 92 % 0.0 mm 0 W/m2
02:35 17.6 °C 16.2 °C 1011.4 hPa NW 9.7 km/h 33.8 km/h 92 % 0.0 mm 0 W/m2
02:40 17.6 °C 16.2 °C 1011.4 hPa WNW 11.3 km/h 33.8 km/h 92 % 0.0 mm 0 W/m2
02:45 17.6 °C 16.2 °C 1011.4 hPa West 14.5 km/h 30.6 km/h 92 % 0.0 mm 0 W/m2
02:50 17.2 °C 15.9 °C 1011.4 hPa North 9.7 km/h 30.6 km/h 92 % 0.3 mm 0 W/m2
03:00 17.0 °C 15.9 °C 1011.4 hPa WNW 16.1 km/h 27.4 km/h 93 % 0.3 mm 0 W/m2
03:05 17.0 °C 16.0 °C 1011.4 hPa WNW 6.4 km/h 27.4 km/h 94 % 0.3 mm 0 W/m2
03:10 17.1 °C 16.1 °C 1011.4 hPa West 9.7 km/h 22.5 km/h 94 % 0.3 mm 0 W/m2
03:15 17.2 °C 16.2 °C 1011.4 hPa West 11.3 km/h 22.5 km/h 94 % 0.3 mm 0 W/m2
03:20 17.1 °C 15.9 °C 1011.4 hPa WNW 19.3 km/h 22.5 km/h 93 % 0.3 mm 0 W/m2
03:25 16.9 °C 16.0 °C 1011.1 hPa West 4.8 km/h 22.5 km/h 94 % 0.3 mm 0 W/m2
03:30 16.9 °C 15.9 °C 1011.1 hPa WNW 11.3 km/h 22.5 km/h 94 % 0.3 mm 0 W/m2
03:35 16.9 °C 16.0 °C 1011.1 hPa West 20.9 km/h 27.4 km/h 94 % 0.3 mm 0 W/m2
03:40 16.8 °C 15.9 °C 1011.4 hPa NW 8.0 km/h 27.4 km/h 94 % 0.3 mm 0 W/m2
03:45 16.8 °C 15.8 °C 1011.4 hPa WSW 6.4 km/h 25.7 km/h 94 % 0.3 mm 0 W/m2
03:50 16.7 °C 15.8 °C 1011.4 hPa West 11.3 km/h 24.1 km/h 94 % 0.0 mm 0 W/m2
03:55 16.6 °C 15.5 °C 1011.4 hPa WNW 12.9 km/h 25.7 km/h 93 % 0.0 mm 0 W/m2
04:00 16.6 °C 15.5 °C 1011.4 hPa NW 20.9 km/h 25.7 km/h 93 % 0.0 mm 0 W/m2
04:05 16.7 °C 15.5 °C 1011.4 hPa WNW 16.1 km/h 33.8 km/h 93 % 0.0 mm 0 W/m2
04:10 16.7 °C 15.5 °C 1011.4 hPa NW 9.7 km/h 33.8 km/h 93 % 0.0 mm 0 W/m2
04:15 16.7 °C 15.4 °C 1011.4 hPa West 9.7 km/h 29.0 km/h 92 % 0.0 mm 0 W/m2
04:20 16.6 °C 15.1 °C 1011.4 hPa WNW 6.4 km/h 29.0 km/h 91 % 0.0 mm 0 W/m2
04:25 16.4 °C 14.9 °C 1011.4 hPa NW 14.5 km/h 24.1 km/h 91 % 0.0 mm 0 W/m2
04:30 16.3 °C 14.9 °C 1011.4 hPa WNW 11.3 km/h 24.1 km/h 91 % 0.0 mm 0 W/m2
04:35 16.3 °C 14.9 °C 1011.7 hPa WNW 19.3 km/h 25.7 km/h 91 % 0.0 mm 0 W/m2
04:40 16.4 °C 14.7 °C 1011.7 hPa WNW 16.1 km/h 25.7 km/h 90 % 0.0 mm 0 W/m2
04:45 16.4 °C 14.7 °C 1011.7 hPa NW 16.1 km/h 25.7 km/h 90 % 0.0 mm 0 W/m2
04:50 16.4 °C 14.7 °C 1011.7 hPa WNW 20.9 km/h 24.1 km/h 90 % 0.0 mm 0 W/m2
04:55 16.4 °C 14.6 °C 1011.7 hPa WNW 12.9 km/h 20.9 km/h 89 % 0.0 mm 0 W/m2
05:00 16.3 °C 14.3 °C 1011.7 hPa NW 11.3 km/h 25.7 km/h 88 % 0.0 mm 0 W/m2
05:05 16.2 °C 14.2 °C 1012.1 hPa WNW 4.8 km/h 25.7 km/h 88 % 0.0 mm 0 W/m2
05:10 16.3 °C 14.3 °C 1012.1 hPa WNW 17.7 km/h 22.5 km/h 88 % 0.0 mm 0 W/m2
05:20 16.3 °C 14.3 °C 1012.1 hPa WNW 6.4 km/h 22.5 km/h 88 % 0.0 mm 0 W/m2
05:25 16.2 °C 14.1 °C 1012.1 hPa North 8.0 km/h 22.5 km/h 87 % 0.0 mm 0 W/m2
05:30 16.1 °C 13.9 °C 1012.1 hPa WNW 8.0 km/h 19.3 km/h 87 % 0.0 mm 0 W/m2
05:35 15.9 °C 13.8 °C 1012.4 hPa NW 9.7 km/h 19.3 km/h 87 % 0.0 mm 0 W/m2
05:40 15.9 °C 13.8 °C 1012.4 hPa West 4.8 km/h 14.5 km/h 87 % 0.0 mm 0 W/m2
05:45 16.0 °C 13.7 °C 1012.4 hPa West 4.8 km/h 19.3 km/h 86 % 0.0 mm 0 W/m2
05:50 15.9 °C 13.6 °C 1012.4 hPa WNW 4.8 km/h 25.7 km/h 86 % 0.0 mm 0 W/m2
05:55 15.8 °C 14.1 °C 1012.4 hPa West 8.0 km/h 25.7 km/h 90 % 0.0 mm 0 W/m2
06:00 15.7 °C 14.2 °C 1012.8 hPa NW 16.1 km/h 33.8 km/h 91 % 0.0 mm 0 W/m2
06:05 15.4 °C 14.1 °C 1012.8 hPa WNW 9.7 km/h 33.8 km/h 92 % 0.0 mm 0 W/m2
06:10 15.2 °C 13.9 °C 1012.4 hPa NW 1.6 km/h 22.5 km/h 92 % 0.0 mm 0 W/m2
06:15 15.2 °C 13.9 °C 1012.4 hPa NW 9.7 km/h 16.1 km/h 92 % 0.0 mm 0 W/m2
06:20 15.2 °C 13.9 °C 1012.4 hPa WNW 1.6 km/h 20.9 km/h 92 % 0.0 mm 0 W/m2
06:25 15.1 °C 13.8 °C 1012.4 hPa NNW 3.2 km/h 20.9 km/h 92 % 0.0 mm 0 W/m2
06:30 15.2 °C 13.9 °C 1012.4 hPa Calm   20.9 km/h 92 % 0.0 mm 0 W/m2
06:35 15.2 °C 13.8 °C 1012.4 hPa WNW 3.2 km/h 17.7 km/h 91 % 0.0 mm 0 W/m2
06:40 15.3 °C 13.7 °C 1012.8 hPa NW 17.7 km/h 20.9 km/h 90 % 0.0 mm 0 W/m2
06:45 15.4 °C 13.8 °C 1012.8 hPa NW 17.7 km/h 24.1 km/h 90 % 0.0 mm 0 W/m2
06:50 15.5 °C 13.7 °C 1012.8 hPa WNW 9.7 km/h 24.1 km/h 89 % 0.0 mm 7 W/m2
06:55 15.6 °C 13.7 °C 1012.8 hPa Calm   19.3 km/h 89 % 0.0 mm 7 W/m2
07:00 15.7 °C 13.9 °C 1012.8 hPa NW 4.8 km/h 14.5 km/h 89 % 0.0 mm 5 W/m2
07:05 15.7 °C 13.7 °C 1012.8 hPa WNW 8.0 km/h 17.7 km/h 88 % 0.0 mm 7 W/m2
07:10 15.8 °C 13.8 °C 1012.8 hPa West 6.4 km/h 17.7 km/h 88 % 0.0 mm 7 W/m2
07:15 15.8 °C 13.7 °C 1012.8 hPa West 8.0 km/h 19.3 km/h 87 % 0.0 mm 9 W/m2
07:20 15.9 °C 13.2 °C 1013.1 hPa WNW 4.8 km/h 22.5 km/h 84 % 0.0 mm 12 W/m2
07:25 16.0 °C 13.1 °C 1013.1 hPa WNW 4.8 km/h 22.5 km/h 83 % 0.0 mm 16 W/m2
07:30 16.1 °C 13.0 °C 1013.1 hPa NW 4.8 km/h 19.3 km/h 82 % 0.0 mm 16 W/m2
07:35 16.2 °C 13.1 °C 1013.1 hPa NW 16.1 km/h 19.3 km/h 82 % 0.0 mm 16 W/m2
07:40 16.2 °C 13.0 °C 1013.1 hPa NW 3.2 km/h 20.9 km/h 81 % 0.0 mm 19 W/m2
07:45 16.3 °C 13.0 °C 1013.1 hPa WNW 6.4 km/h 20.9 km/h 81 % 0.0 mm 21 W/m2
07:50 16.3 °C 13.0 °C 1013.4 hPa North 6.4 km/h 20.9 km/h 81 % 0.0 mm 21 W/m2
07:55 16.3 °C 13.1 °C 1013.4 hPa West 4.8 km/h 20.9 km/h 81 % 0.0 mm 28 W/m2
08:00 16.4 °C 13.1 °C 1013.4 hPa West 4.8 km/h 19.3 km/h 81 % 0.0 mm 44 W/m2
08:05 16.4 °C 13.0 °C 1013.4 hPa NW 6.4 km/h 20.9 km/h 80 % 0.0 mm 56 W/m2
08:10 16.5 °C 13.0 °C 1013.4 hPa West 12.9 km/h 20.9 km/h 80 % 0.0 mm 54 W/m2
08:15 16.6 °C 13.3 °C 1013.4 hPa NW 4.8 km/h 16.1 km/h 81 % 0.0 mm 77 W/m2
08:25 16.8 °C 13.5 °C 1013.4 hPa WNW 4.8 km/h 16.1 km/h 81 % 0.0 mm 116 W/m2
08:30 16.9 °C 13.6 °C 1013.8 hPa West 4.8 km/h 16.1 km/h 81 % 0.0 mm 98 W/m2
08:35 16.9 °C 13.5 °C 1013.8 hPa Calm   16.1 km/h 80 % 0.0 mm 109 W/m2
08:40 16.9 °C 13.2 °C 1013.8 hPa WNW 1.6 km/h 14.5 km/h 79 % 0.0 mm 109 W/m2
08:45 16.9 °C 13.5 °C 1013.8 hPa West 9.7 km/h 14.5 km/h 80 % 0.0 mm 123 W/m2
08:50 16.9 °C 13.1 °C 1014.1 hPa WNW 1.6 km/h 14.5 km/h 78 % 0.0 mm 118 W/m2
09:00 17.0 °C 13.3 °C 1014.1 hPa WNW 4.8 km/h 17.7 km/h 79 % 0.0 mm 93 W/m2
09:05 16.9 °C 12.4 °C 1014.1 hPa West 8.0 km/h 24.1 km/h 75 % 0.0 mm 111 W/m2
09:10 16.9 °C 12.7 °C 1014.1 hPa NW 4.8 km/h 24.1 km/h 76 % 0.0 mm 116 W/m2
09:15 17.0 °C 12.7 °C 1014.1 hPa WSW 1.6 km/h 22.5 km/h 76 % 0.0 mm 146 W/m2
09:20 17.1 °C 12.6 °C 1014.1 hPa WNW 9.7 km/h 20.9 km/h 75 % 0.0 mm 174 W/m2
09:25 17.2 °C 12.7 °C 1014.1 hPa NNW 14.5 km/h 22.5 km/h 75 % 0.0 mm 197 W/m2
09:30 17.4 °C 12.9 °C 1014.1 hPa NNW 6.4 km/h 25.7 km/h 75 % 0.0 mm 214 W/m2
09:35 17.4 °C 12.8 °C 1014.1 hPa NNW 9.7 km/h 25.7 km/h 74 % 0.0 mm 225 W/m2
09:40 17.6 °C 13.3 °C 1014.1 hPa WNW 17.7 km/h 25.7 km/h 76 % 0.0 mm 230 W/m2
09:45 17.6 °C 12.7 °C 1014.1 hPa West 8.0 km/h 19.3 km/h 73 % 0.0 mm 243 W/m2
09:50 17.7 °C 12.6 °C 1014.1 hPa NNW 14.5 km/h 22.5 km/h 72 % 0.0 mm 250 W/m2
09:55 17.6 °C 12.5 °C 1014.4 hPa WNW 9.7 km/h 24.1 km/h 72 % 0.0 mm 211 W/m2
10:00 17.6 °C 12.5 °C 1014.4 hPa WNW 12.9 km/h 24.1 km/h 72 % 0.0 mm 281 W/m2
10:05 18.2 °C 12.9 °C 1014.4 hPa West 14.5 km/h 24.1 km/h 71 % 0.0 mm 302 W/m2
10:10 18.3 °C 12.3 °C 1014.4 hPa WNW 6.4 km/h 24.1 km/h 68 % 0.0 mm 265 W/m2
10:15 18.6 °C 13.0 °C 1014.4 hPa NW 4.8 km/h 22.5 km/h 70 % 0.0 mm 223 W/m2
10:20 18.9 °C 13.1 °C 1014.4 hPa WSW 11.3 km/h 22.5 km/h 69 % 0.0 mm 559 W/m2
10:25 19.1 °C 13.1 °C 1014.8 hPa West 9.7 km/h 22.5 km/h 68 % 0.0 mm 550 W/m2
10:30 19.2 °C 12.7 °C 1014.8 hPa WNW 8.0 km/h 29.0 km/h 66 % 0.0 mm 582 W/m2
10:35 19.6 °C 13.5 °C 1014.8 hPa West 9.7 km/h 29.0 km/h 68 % 0.0 mm 603 W/m2
10:40 19.9 °C 13.1 °C 1014.8 hPa WNW 4.8 km/h 25.7 km/h 65 % 0.0 mm 605 W/m2
10:45 19.7 °C 12.7 °C 1014.8 hPa West 9.7 km/h 25.7 km/h 64 % 0.0 mm 619 W/m2
10:50 19.9 °C 13.6 °C 1014.8 hPa NNW 12.9 km/h 20.9 km/h 67 % 0.0 mm 635 W/m2
10:55 20.2 °C 13.7 °C 1014.8 hPa NNW 6.4 km/h 19.3 km/h 66 % 0.0 mm 656 W/m2
11:00 20.1 °C 13.6 °C 1014.8 hPa WNW 11.3 km/h 24.1 km/h 66 % 0.0 mm 703 W/m2
11:05 20.4 °C 14.1 °C 1014.8 hPa West 6.4 km/h 24.1 km/h 67 % 0.0 mm 635 W/m2
11:10 20.4 °C 13.4 °C 1014.8 hPa NW 9.7 km/h 20.9 km/h 64 % 0.0 mm 612 W/m2
11:15 20.3 °C 13.5 °C 1014.8 hPa WNW 6.4 km/h 19.3 km/h 65 % 0.0 mm 411 W/m2
11:20 20.1 °C 13.1 °C 1014.8 hPa WNW 14.5 km/h 19.3 km/h 64 % 0.0 mm 645 W/m2
11:25 20.2 °C 13.6 °C 1014.8 hPa West 16.1 km/h 25.7 km/h 66 % 0.0 mm 464 W/m2
11:30 19.8 °C 13.2 °C 1014.8 hPa West 19.3 km/h 25.7 km/h 66 % 0.0 mm 513 W/m2
11:35 19.4 °C 13.3 °C 1014.8 hPa NW 9.7 km/h 25.7 km/h 68 % 0.0 mm 410 W/m2
11:40 19.3 °C 12.8 °C 1014.8 hPa WNW 17.7 km/h 20.9 km/h 66 % 0.0 mm 461 W/m2
11:45 19.8 °C 12.6 °C 1014.8 hPa WNW 6.4 km/h 19.3 km/h 63 % 0.0 mm 522 W/m2
11:50 19.9 °C 12.4 °C 1015.1 hPa West 8.0 km/h 17.7 km/h 62 % 0.0 mm 457 W/m2
11:55 20.1 °C 12.4 °C 1015.1 hPa West 1.6 km/h 19.3 km/h 61 % 0.0 mm 506 W/m2
12:00 20.3 °C 11.7 °C 1015.1 hPa WNW 8.0 km/h 19.3 km/h 58 % 0.0 mm 417 W/m2
12:05 19.9 °C 12.4 °C 1015.1 hPa West 9.7 km/h 19.3 km/h 62 % 0.0 mm 425 W/m2
12:10 20.2 °C 11.9 °C 1015.1 hPa WNW 9.7 km/h 19.3 km/h 59 % 0.0 mm 366 W/m2
12:15 19.7 °C 11.7 °C 1015.1 hPa WNW 9.7 km/h 20.9 km/h 60 % 0.0 mm 367 W/m2
12:20 19.3 °C 11.4 °C 1015.1 hPa NW 8.0 km/h 20.9 km/h 60 % 0.0 mm 345 W/m2
12:25 19.6 °C 12.1 °C 1015.1 hPa West 9.7 km/h 17.7 km/h 62 % 0.0 mm 385 W/m2
12:30 19.7 °C 12.2 °C 1015.1 hPa WSW 12.9 km/h 17.7 km/h 62 % 0.0 mm 415 W/m2
12:35 19.7 °C 12.2 °C 1015.1 hPa West 11.3 km/h 20.9 km/h 62 % 0.0 mm 445 W/m2
12:40 19.7 °C 11.9 °C 1015.1 hPa West 8.0 km/h 24.1 km/h 61 % 0.0 mm 531 W/m2
12:45 19.6 °C 11.8 °C 1015.1 hPa WSW 17.7 km/h 24.1 km/h 61 % 0.0 mm 492 W/m2
12:50 19.9 °C 12.9 °C 1015.1 hPa WNW 14.5 km/h 20.9 km/h 64 % 0.0 mm 461 W/m2
12:55 20.3 °C 13.1 °C 1015.1 hPa WSW 11.3 km/h 20.9 km/h 63 % 0.0 mm 775 W/m2
13:00 20.8 °C 12.5 °C 1015.5 hPa WNW 6.4 km/h 20.9 km/h 59 % 0.0 mm 1063 W/m2
13:05 21.4 °C 12.3 °C 1015.5 hPa WNW 16.1 km/h 22.5 km/h 56 % 0.0 mm 650 W/m2
13:10 20.7 °C 11.9 °C 1015.5 hPa WNW 4.8 km/h 22.5 km/h 57 % 0.0 mm 371 W/m2
13:15 19.9 °C 11.7 °C 1015.5 hPa West 17.7 km/h 19.3 km/h 59 % 0.0 mm 320 W/m2
13:20 19.4 °C 11.7 °C 1015.5 hPa West 8.0 km/h 20.9 km/h 61 % 0.0 mm 345 W/m2
13:25 19.4 °C 11.7 °C 1015.5 hPa WNW 3.2 km/h 20.9 km/h 61 % 0.0 mm 561 W/m2
13:30 19.7 °C 12.2 °C 1015.5 hPa West 17.7 km/h 20.9 km/h 62 % 0.0 mm 448 W/m2
13:35 19.2 °C 12.0 °C 1015.5 hPa WNW 8.0 km/h 19.3 km/h 63 % 0.0 mm 385 W/m2
13:40 19.4 °C 12.9 °C 1015.5 hPa West 9.7 km/h 24.1 km/h 66 % 0.0 mm 403 W/m2
13:45 20.1 °C 13.0 °C 1015.5 hPa WSW 14.5 km/h 24.1 km/h 64 % 0.0 mm 603 W/m2
13:50 20.6 °C 13.5 °C 1015.5 hPa West 3.2 km/h 19.3 km/h 64 % 0.0 mm 643 W/m2
13:55 20.5 °C 13.0 °C 1015.5 hPa WNW 3.2 km/h 20.9 km/h 62 % 0.0 mm 605 W/m2
14:00 20.3 °C 13.0 °C 1015.5 hPa WNW 6.4 km/h 22.5 km/h 63 % 0.0 mm 654 W/m2
14:05 20.6 °C 13.7 °C 1015.5 hPa WNW 16.1 km/h 22.5 km/h 65 % 0.0 mm 519 W/m2
14:10 20.1 °C 12.8 °C 1015.5 hPa WSW 6.4 km/h 20.9 km/h 63 % 0.0 mm 538 W/m2
14:15 19.8 °C 13.1 °C 1015.5 hPa West 3.2 km/h 22.5 km/h 65 % 0.0 mm 499 W/m2
14:20 19.8 °C 12.5 °C 1015.8 hPa SW 14.5 km/h 22.5 km/h 63 % 0.0 mm 418 W/m2
14:25 20.7 °C 13.4 °C 1015.8 hPa WNW 6.4 km/h 20.9 km/h 63 % 0.0 mm 819 W/m2
14:30 21.1 °C 13.0 °C 1015.8 hPa WNW 12.9 km/h 22.5 km/h 60 % 0.0 mm 898 W/m2
14:35 21.2 °C 13.3 °C 1015.8 hPa West 6.4 km/h 22.5 km/h 61 % 0.0 mm 981 W/m2
14:40 21.2 °C 13.1 °C 1015.8 hPa WNW 17.7 km/h 22.5 km/h 60 % 0.0 mm 1148 W/m2
14:45 21.7 °C 13.4 °C 1015.8 hPa WNW 17.7 km/h 22.5 km/h 59 % 0.0 mm 357 W/m2
14:50 21.8 °C 14.5 °C 1015.8 hPa NW 8.0 km/h 20.9 km/h 63 % 0.0 mm 1127 W/m2
14:55 22.3 °C 14.9 °C 1015.8 hPa WNW 3.2 km/h 19.3 km/h 63 % 0.0 mm 1060 W/m2
15:00 22.3 °C 13.3 °C 1015.8 hPa WNW 4.8 km/h 22.5 km/h 57 % 0.0 mm 1060 W/m2
15:05 22.8 °C 13.3 °C 1015.8 hPa NW 12.9 km/h 22.5 km/h 55 % 0.0 mm 1137 W/m2
15:10 22.1 °C 13.5 °C 1015.8 hPa NW 9.7 km/h 24.1 km/h 58 % 0.0 mm 522 W/m2
15:15 21.2 °C 12.4 °C 1015.8 hPa WSW 9.7 km/h 24.1 km/h 57 % 0.0 mm 501 W/m2
15:20 20.8 °C 12.0 °C 1015.8 hPa WNW 14.5 km/h 30.6 km/h 57 % 0.0 mm 584 W/m2
15:25 20.7 °C 12.7 °C 1015.8 hPa West 8.0 km/h 30.6 km/h 60 % 0.0 mm 615 W/m2
15:30 20.9 °C 11.8 °C 1015.8 hPa NW 16.1 km/h 24.1 km/h 56 % 0.0 mm 594 W/m2
15:35 20.8 °C 11.4 °C 1015.8 hPa SW 20.9 km/h 24.1 km/h 55 % 0.0 mm 573 W/m2
15:40 20.3 °C 12.1 °C 1015.8 hPa SW 11.3 km/h 27.4 km/h 59 % 0.0 mm 513 W/m2
15:45 20.1 °C 12.1 °C 1015.8 hPa West 19.3 km/h 27.4 km/h 60 % 0.0 mm 591 W/m2
15:50 20.2 °C 11.7 °C 1015.8 hPa West 22.5 km/h 25.7 km/h 58 % 0.0 mm 621 W/m2
15:55 20.6 °C 12.5 °C 1015.8 hPa West 20.9 km/h 25.7 km/h 60 % 0.0 mm 527 W/m2
16:00 20.3 °C 12.1 °C 1015.8 hPa WNW 12.9 km/h 25.7 km/h 59 % 0.0 mm 455 W/m2
16:05 21.3 °C 12.7 °C 1015.5 hPa WSW 4.8 km/h 24.1 km/h 58 % 0.0 mm 816 W/m2
16:10 20.8 °C 11.5 °C 1015.5 hPa WSW 9.7 km/h 22.5 km/h 55 % 0.0 mm 784 W/m2
16:15 20.9 °C 12.0 °C 1015.5 hPa NNW 6.4 km/h 22.5 km/h 57 % 0.0 mm 777 W/m2
16:20 21.6 °C 12.2 °C 1015.5 hPa West 4.8 km/h 22.5 km/h 55 % 0.0 mm 761 W/m2
16:25 21.4 °C 12.0 °C 1015.5 hPa West 9.7 km/h 25.7 km/h 55 % 0.0 mm 745 W/m2
16:30 20.8 °C 11.2 °C 1015.5 hPa WNW 6.4 km/h 25.7 km/h 54 % 0.0 mm 728 W/m2
16:35 20.9 °C 11.2 °C 1015.5 hPa NW 12.9 km/h 25.7 km/h 54 % 0.0 mm 742 W/m2
16:40 20.5 °C 10.9 °C 1015.5 hPa WSW 27.4 km/h 27.4 km/h 54 % 0.0 mm 657 W/m2
16:45 21.1 °C 11.7 °C 1015.5 hPa WNW 9.7 km/h 27.4 km/h 55 % 0.0 mm 705 W/m2
16:50 21.3 °C 12.1 °C 1015.5 hPa West 8.0 km/h 27.4 km/h 56 % 0.0 mm 680 W/m2
16:55 21.8 °C 12.9 °C 1015.8 hPa WNW 16.1 km/h 16.1 km/h 57 % 0.0 mm 705 W/m2
17:00 20.6 °C 12.0 °C 1015.5 hPa NNW 12.9 km/h 24.1 km/h 58 % 0.0 mm 647 W/m2
17:05 20.0 °C 11.5 °C 1015.5 hPa NW 12.9 km/h 25.7 km/h 58 % 0.0 mm 670 W/m2
17:10 20.6 °C 12.1 °C 1015.8 hPa West 25.7 km/h 25.7 km/h 58 % 0.0 mm 654 W/m2
17:15 20.4 °C 11.8 °C 1015.8 hPa WSW 12.9 km/h 25.7 km/h 58 % 0.0 mm 657 W/m2
17:20 20.2 °C 12.2 °C 1015.8 hPa West 11.3 km/h 25.7 km/h 60 % 0.0 mm 624 W/m2
17:25 20.6 °C 12.6 °C 1015.8 hPa West 12.9 km/h 24.1 km/h 60 % 0.0 mm 594 W/m2
17:30 20.4 °C 12.1 °C 1015.8 hPa West 9.7 km/h 24.1 km/h 59 % 0.0 mm 640 W/m2
17:35 20.6 °C 11.7 °C 1015.8 hPa WNW 9.7 km/h 24.1 km/h 57 % 0.0 mm 621 W/m2
17:40 20.2 °C 11.9 °C 1015.8 hPa WNW 12.9 km/h 24.1 km/h 59 % 0.0 mm 585 W/m2
17:45 20.0 °C 12.0 °C 1015.8 hPa West 12.9 km/h 24.1 km/h 60 % 0.0 mm 570 W/m2
17:50 20.0 °C 12.2 °C 1015.8 hPa West 20.9 km/h 24.1 km/h 61 % 0.0 mm 559 W/m2
17:55 20.2 °C 12.2 °C 1015.8 hPa NNW 11.3 km/h 24.1 km/h 60 % 0.0 mm 555 W/m2
18:00 19.8 °C 11.8 °C 1015.8 hPa SW 9.7 km/h 25.7 km/h 60 % 0.0 mm 529 W/m2
18:05 19.8 °C 12.3 °C 1015.5 hPa WSW 6.4 km/h 25.7 km/h 62 % 0.0 mm 529 W/m2
18:10 20.1 °C 12.8 °C 1015.5 hPa West 9.7 km/h 25.7 km/h 63 % 0.0 mm 512 W/m2
18:15 19.8 °C 12.6 °C 1015.5 hPa West 6.4 km/h 17.7 km/h 63 % 0.0 mm 485 W/m2
18:20 20.1 °C 13.0 °C 1015.5 hPa WNW 12.9 km/h 19.3 km/h 64 % 0.0 mm 473 W/m2
18:25 19.7 °C 12.7 °C 1015.5 hPa SSW 8.0 km/h 19.3 km/h 64 % 0.0 mm 443 W/m2
18:30 19.9 °C 13.1 °C 1015.5 hPa West 9.7 km/h 20.9 km/h 65 % 0.0 mm 396 W/m2
18:35 19.3 °C 12.3 °C 1015.5 hPa WNW 6.4 km/h 24.1 km/h 64 % 0.0 mm 338 W/m2
18:40 19.3 °C 12.5 °C 1015.5 hPa West 12.9 km/h 24.1 km/h 65 % 0.0 mm 396 W/m2
18:45 19.3 °C 12.8 °C 1015.5 hPa WNW 6.4 km/h 20.9 km/h 66 % 0.0 mm 394 W/m2
18:50 19.6 °C 12.6 °C 1015.5 hPa WSW 14.5 km/h 20.9 km/h 64 % 0.0 mm 441 W/m2
18:55 19.8 °C 12.6 °C 1015.5 hPa WSW 19.3 km/h 20.9 km/h 63 % 0.0 mm 403 W/m2
19:00 19.6 °C 11.9 °C 1015.5 hPa NW 6.4 km/h 20.9 km/h 61 % 0.0 mm 325 W/m2
19:05 19.3 °C 11.9 °C 1015.1 hPa WNW 12.9 km/h 22.5 km/h 62 % 0.0 mm 346 W/m2
19:10 19.3 °C 11.6 °C 1015.1 hPa WSW 8.0 km/h 22.5 km/h 61 % 0.0 mm 339 W/m2
19:15 19.3 °C 11.8 °C 1015.1 hPa WNW 14.5 km/h 22.5 km/h 62 % 0.0 mm 308 W/m2
19:20 19.3 °C 11.6 °C 1015.1 hPa West 4.8 km/h 22.5 km/h 61 % 0.0 mm 306 W/m2
19:25 19.3 °C 11.9 °C 1015.1 hPa WSW 3.2 km/h 17.7 km/h 62 % 0.0 mm 255 W/m2
19:30 19.4 °C 11.9 °C 1015.1 hPa West 6.4 km/h 22.5 km/h 62 % 0.0 mm 278 W/m2
19:35 19.2 °C 12.0 °C 1015.1 hPa WNW 9.7 km/h 22.5 km/h 63 % 0.0 mm 297 W/m2
19:40 19.1 °C 12.1 °C 1015.1 hPa NW 6.4 km/h 20.9 km/h 64 % 0.0 mm 190 W/m2
19:45 18.9 °C 12.0 °C 1015.1 hPa NW 11.3 km/h 17.7 km/h 64 % 0.0 mm 186 W/m2
19:50 18.8 °C 12.1 °C 1015.1 hPa WNW 8.0 km/h 17.7 km/h 65 % 0.0 mm 230 W/m2
19:55 18.8 °C 11.8 °C 1015.1 hPa WNW 14.5 km/h 22.5 km/h 64 % 0.0 mm 199 W/m2
20:00 18.6 °C 11.7 °C 1015.5 hPa NW 19.3 km/h 22.5 km/h 64 % 0.0 mm 162 W/m2
20:05 18.3 °C 11.9 °C 1015.1 hPa WNW 8.0 km/h 22.5 km/h 66 % 0.0 mm 121 W/m2
20:10 18.1 °C 11.4 °C 1015.1 hPa NW 9.7 km/h 20.9 km/h 65 % 0.0 mm 97 W/m2
20:15 18.0 °C 11.6 °C 1015.1 hPa West 3.2 km/h 20.9 km/h 66 % 0.0 mm 88 W/m2
20:20 17.9 °C 11.5 °C 1015.5 hPa WNW 8.0 km/h 17.7 km/h 66 % 0.0 mm 137 W/m2
20:25 18.0 °C 11.3 °C 1015.5 hPa West 17.7 km/h 20.9 km/h 65 % 0.0 mm 72 W/m2
20:30 17.8 °C 10.9 °C 1015.1 hPa West 11.3 km/h 20.9 km/h 64 % 0.0 mm 128 W/m2
20:35 17.8 °C 11.6 °C 1015.1 hPa WNW 6.4 km/h 20.9 km/h 67 % 0.0 mm 98 W/m2
20:40 17.8 °C 11.8 °C 1015.1 hPa West 12.9 km/h 16.1 km/h 68 % 0.0 mm 58 W/m2
20:45 17.7 °C 11.5 °C 1015.1 hPa West 11.3 km/h 19.3 km/h 67 % 0.0 mm 53 W/m2
20:55 17.4 °C 11.2 °C 1015.1 hPa West 11.3 km/h 17.7 km/h 67 % 0.0 mm 37 W/m2
21:00 17.3 °C 11.1 °C 1015.1 hPa West 6.4 km/h 17.7 km/h 67 % 0.0 mm 30 W/m2
21:05 17.2 °C 11.0 °C 1015.1 hPa WNW 1.6 km/h 16.1 km/h 67 % 0.0 mm 26 W/m2
21:10 17.2 °C 11.2 °C 1015.1 hPa WNW 8.0 km/h 19.3 km/h 68 % 0.0 mm 21 W/m2
21:15 17.1 °C 11.3 °C 1015.1 hPa WNW 4.8 km/h 19.3 km/h 69 % 0.0 mm 18 W/m2
21:20 16.9 °C 11.4 °C 1015.1 hPa WNW 4.8 km/h 17.7 km/h 70 % 0.0 mm 14 W/m2
21:25 16.8 °C 11.1 °C 1015.1 hPa NW 12.9 km/h 17.7 km/h 69 % 0.0 mm 14 W/m2
21:30 16.8 °C 11.3 °C 1015.1 hPa NW 8.0 km/h 17.7 km/h 70 % 0.0 mm 12 W/m2
21:35 16.8 °C 11.3 °C 1015.1 hPa WNW 6.4 km/h 17.7 km/h 70 % 0.0 mm 9 W/m2
21:40 16.7 °C 11.4 °C 1015.1 hPa WNW 8.0 km/h 16.1 km/h 71 % 0.0 mm 7 W/m2
21:45 16.6 °C 11.3 °C 1015.1 hPa NW 1.6 km/h 17.7 km/h 71 % 0.0 mm 7 W/m2
21:50 16.5 °C 11.4 °C 1015.1 hPa NW 8.0 km/h 19.3 km/h 72 % 0.0 mm 0 W/m2
21:55 16.6 °C 11.3 °C 1015.1 hPa West 6.4 km/h 19.3 km/h 71 % 0.0 mm 0 W/m2
22:00 16.4 °C 11.2 °C 1015.1 hPa West 8.0 km/h 12.9 km/h 71 % 0.0 mm 0 W/m2
22:05 16.5 °C 11.4 °C 1015.5 hPa WSW 6.4 km/h 16.1 km/h 72 % 0.0 mm 0 W/m2
22:10 16.3 °C 11.3 °C 1015.5 hPa WNW 1.6 km/h 16.1 km/h 72 % 0.0 mm 0 W/m2
22:15 16.3 °C 11.3 °C 1015.5 hPa West 16.1 km/h 16.1 km/h 72 % 0.0 mm 0 W/m2
22:20 16.3 °C 11.1 °C 1015.5 hPa WNW 4.8 km/h 19.3 km/h 71 % 0.0 mm 0 W/m2
22:25 16.3 °C 11.2 °C 1015.5 hPa WNW 4.8 km/h 19.3 km/h 72 % 0.0 mm 0 W/m2
22:30 16.4 °C 11.4 °C 1015.5 hPa West 9.7 km/h 17.7 km/h 72 % 0.0 mm 0 W/m2
22:35 16.3 °C 11.3 °C 1015.5 hPa West 11.3 km/h 17.7 km/h 72 % 0.0 mm 0 W/m2
22:40 16.3 °C 11.3 °C 1015.5 hPa West 9.7 km/h 16.1 km/h 72 % 0.0 mm 0 W/m2
22:45 16.3 °C 11.3 °C 1015.5 hPa WNW 4.8 km/h 16.1 km/h 72 % 0.0 mm 0 W/m2
22:50 16.3 °C 11.1 °C 1015.5 hPa West 4.8 km/h 17.7 km/h 71 % 0.0 mm 0 W/m2
22:55 16.3 °C 11.2 °C 1015.5 hPa WSW 11.3 km/h 17.7 km/h 72 % 0.0 mm 0 W/m2
23:00 16.2 °C 11.0 °C 1015.5 hPa NW 3.2 km/h 14.5 km/h 71 % 0.0 mm 0 W/m2
23:05 16.3 °C 11.1 °C 1015.5 hPa West 6.4 km/h 14.5 km/h 71 % 0.0 mm 0 W/m2
23:10 16.3 °C 11.1 °C 1015.5 hPa West 9.7 km/h 14.5 km/h 71 % 0.0 mm 0 W/m2
23:15 16.1 °C 11.1 °C 1015.5 hPa WNW 12.9 km/h 16.1 km/h 72 % 0.0 mm 0 W/m2
23:20 16.1 °C 11.2 °C 1015.5 hPa NW 11.3 km/h 16.1 km/h 73 % 0.0 mm 0 W/m2
23:25 16.1 °C 11.1 °C 1015.5 hPa West 3.2 km/h 14.5 km/h 72 % 0.0 mm 0 W/m2
23:30 15.9 °C 10.9 °C 1015.5 hPa West 4.8 km/h 11.3 km/h 72 % 0.0 mm 0 W/m2
23:35 15.9 °C 10.7 °C 1015.5 hPa WNW 6.4 km/h 12.9 km/h 71 % 0.0 mm 0 W/m2
23:40 16.0 °C 10.7 °C 1015.5 hPa Calm   14.5 km/h 71 % 0.0 mm 0 W/m2
23:45 15.8 °C 10.5 °C 1015.1 hPa Calm   14.5 km/h 71 % 0.0 mm 0 W/m2
23:50 15.8 °C 10.5 °C 1015.1 hPa West 3.2 km/h 12.9 km/h 71 % 0.0 mm 0 W/m2
23:55 15.8 °C 10.6 °C 1015.1 hPa WNW 4.8 km/h 14.5 km/h 71 % 0.0 mm 0 W/m2
Avec l'autorisation de Weather Underground - 1.75 mb